User: anonymous   Login
Location: Caltech
(34.1382°N, 118.1253°W)
Time: 22:35:43
(UTC-07:00)
Language:

Cosmos 2084 - Orbit

View from above orbital plane
View from above orbital plane
View from above satellite
View from above satellite

Ground track
Ground track

The orbit data is extracted from the following two-line orbital elements,

1 20663U 90055A   15116.80963232  .00001444  00000-0  15946-3 0  9994
2 20663 062.7962 317.1166 0071491 004.1256 356.0410 14.90367330343146
Epoch (UTC): 26 April 2015 19:25:52
Eccentricity: 0.0071491
inclination: 62.7962°
perigee height: 547 km
apogee height: 646 km
right ascension of ascending node: 317.1166°
argument of perigee: 4.1256°
revolutions per day: 14.90367330
mean anomaly at epoch: 356.0410°
orbit number at epoch: 34314

The dashed part of the orbit path shows where the satellite is in the earth's shadow,  

DLR